Theta_e
325 325 323 324 324 325 325 325 327 329 329 329 329 329 327 325 324 324 320 319 318 316
325 325 324 324 325 326 327 327 328 327 327 328 329 328 326 325 323 322 319 317 314 311
311 312 313 314 319 322 323 323 322 323 323 326 325 323 321 318 318 315 312 311 310 307
310 310 310 310 312 315 318 318 318 320 322 320 319 318 316 310 309 308 307 306 306 305
308 309 309 309 310 312 314 315 315 315 313 313 313 312 310 307 306 305 304 304 304 303
306 306 307 307 307 308 310 311 312 310 309 307 306 308 307 306 306 305 304 303 302 301
303 305 305 306 305 305 306 307 307 308 307 305 306 306 305 304 303 302 302 302 301 301
301 302 304 304 304 304 304 304 305 304 303 303 303 303 303 302 301 301 300 299 299 299
302 302 302 303 302 302 301 301 301 301 300 300 300 303 304 301 298 298 297 296 296 297
301 300 301 302 302 301 299 299 299 298 298 298 298 302 303 302 298 297 296 296 296 296
300 299 299 300 300 300 299 298 297 297 298 297 298 301 301 301 294 293 292 294 295 295
298 298 298 297 297 298 300 301 298 297 296 295 296 300 300 299 293 291 290 292 293 294
297 297 296 296 296 297 300 301 300 298 297 298 297 300 300 299 296 292 293 293 293 296
296 296 296 294 295 298 298 297 297 296 296 297 298 297 300 300 296 295 293 292 292 292
Wind_Speed
4 4 8 9 8 8 9 8 11 15 14 12 10 10 10 9 8 8 6 8 6 3
4 6 8 11 10 10 8 9 11 10 10 9 8 9 10 8 10 7 6 5 6 4
1 3 4 3 3 4 2 2 1 4 5 5 6 7 6 4 5 6 4 4 7 5
4 4 3 2 2 1 2 2 2 3 5 5 5 4 4 4 6 6 6 5 6 7
5 5 5 4 4 4 1 2 3 3 4 4 5 5 5 6 5 6 7 6 5 6
6 6 6 5 4 4 3 1 1 3 3 4 4 5 4 6 6 6 6 7 7 6
6 6 5 4 4 4 4 1 1 3 4 4 4 4 4 5 5 5 6 6 6 6
5 5 4 4 5 3 3 3 3 2 3 4 5 3 5 5 5 5 5 5 5 5
5 6 6 4 4 5 4 5 3 4 4 5 3 8 9 8 6 7 7 6 5 4
2 4 6 7 5 5 5 4 6 5 5 5 5 9 9 9 5 6 6 6 6 5
8 7 5 5 4 5 6 5 5 6 6 6 5 11 10 8 3 3 4 5 6 7
6 6 6 7 7 6 5 5 6 5 7 6 5 13 13 10 6 5 5 3 4 4
6 6 5 4 4 5 6 7 4 5 5 7 5 13 15 13 5 6 6 6 7 14
10 8 6 5 4 6 5 5 5 5 5 6 6 7 16 18 8 7 7 7 6 5
Wind_Direction
305 251 229 215 217 227 233 219 210 218 221 220 216 210 197 199 198 195 182 184 177 172
253 233 221 230 221 226 212 211 201 198 199 205 194 187 196 207 207 180 161 171 161 146
57 35 22 2 323 293 347 140 231 174 185 193 192 188 176 167 193 158 158 158 154 160
41 30 18 4 356 32 91 91 200 227 180 169 175 181 155 155 155 151 144 152 168 175
21 360 352 5 16 28 353 204 202 191 173 169 167 168 164 151 163 159 160 172 185 186
14 7 356 5 8 351 333 287 201 159 180 180 177 167 170 162 171 172 176 178 185 177
1 350 346 346 346 325 314 281 197 177 176 175 191 180 178 171 175 182 179 174 180 178
357 339 330 335 323 293 277 272 221 209 176 168 164 175 173 168 171 172 164 158 158 152
10 349 324 299 300 296 292 298 264 223 195 187 193 184 185 174 175 172 169 172 168 154
344 355 332 322 273 265 265 241 236 242 225 216 201 189 196 196 183 178 180 179 173 169
353 341 313 304 312 266 242 237 242 244 236 211 204 192 199 201 139 148 169 166 181 171
308 316 327 332 324 311 284 252 221 219 230 220 218 197 191 184 171 178 200 210 236 210
326 311 308 293 310 297 307 268 244 237 237 227 211 204 196 192 190 177 194 200 216 225
327 319 314 312 308 313 289 283 260 257 240 229 225 220 208 206 204 203 197 192 208 207